www.pogodaiklimat.ru

Погода и климат >> Архив погоды >> Гана >> Бол


ПОГОДА в Боле

  • Прогноз погоды в Боле
  • Монитор погоды в Боле

АРХИВ ПОГОДЫ в Боле

Время (UTC), дата Ветер
(напр.,м/с)
 
Видим.   Явления Облачность Т
(С)
Тd
(С)
f
(%)
Тe
(С)
Тes
(С)
Комфортность P
(гПа)
Po
(гПа)
Тmin
(С)
Tmax
(С)
R
(мм)
R24
(мм)
S
(см)
03 18.03 СВ 1 10 км ясно +28.0 +21.1 66 +35 +35 очень
душно
1006.9 973.1
06 18.03 штиль 0 10 км 3/0
[Ci sp]
+25.5 +21.6 79 +33 +33 очень
душно
1011.0 976.8 +25.5 2
09 18.03 ЮЗ 1 15 км ясно +29.7 +22.1 64 +39 +50 очень
душно
1011.9 978.1
12 18.03 ЮВ 2 15 км 1/1 450 м
[Cu med, cong]
+36.5 +18.5 35 +41 +60 опасность
перегрева
1010.1 977.1
15 18.03 СВ 2 15 км 4/4 480 м
[Cu med, cong]
+39.5 +17.1 27 +42 +50 опасность
перегрева
1006.3 973.7
18 18.03 ЮВ 1 15 км 6/4 400 м
[Cu Sc Ac trans]
+38.0 +17.0 29 +41 +41 опасность
перегрева
1006.1 973.4 +39.7
21 18.03 штиль 0 10 км 3/0
[Ac trans]
+33.5 +19.1 43 +39 +39 очень
душно
1008.8 975.5
00 19.03 Ю 1 10 км ясно +31.5 +18.4 46 +36 +36 очень
душно
1010.0 976.5
03 19.03 ЮЗ 1 10 км 3/0
[Ac trans]
+28.5 +19.5 58 +34 +34 очень
душно
1008.5 974.7
09 19.03 З 2 12 км 5/5 450 м
[Cu med, cong]
+29.5 +21.2 61 +37 +43 очень
душно
1012.5 978.7
12 19.03 СЗ 3 12 км 4/4 480 м
[Cu med, cong]
+35.0 +20.6 43 +42 +53 опасность
перегрева
1010.4 977.2
15 19.03 ЮЗ 3 12 км 5/5 480 м
[Cu med, cong]
+37.1 +19.3 35 +42 +47 опасность
перегрева
1006.3 973.5
18 19.03 СЗ 1 12 км 4/3 480 м
[Cu med, cong Ci fib]
+36.5 +20.2 39 +43 +43 опасность
перегрева
1007.5 974.6 +37.5
21 19.03 штиль 0 10 км 4/0
[Ac trans Ci fib]
+30.8 +20.5 54 +38 +38 очень
душно
1009.6 976.0
00 20.03 штиль 0 10 км 6/0
[Ac trans Ci sp]
+29.5 +20.4 58 +36 +36 очень
душно
1010.2 976.4
03 20.03 ЮЗ 2 10 км гроза без осадков 8/8 360 м
[Cb cap]
+27.0 +20.2 66 +33 +33 очень
душно
1008.4 974.4
06 20.03 ЮЗ 2 10 км гроза без осадков 9/9 360 м
[Cb cap]
+23.5 +22.5 94 +31 +31 очень
душно
1011.1 976.6 +23.5
09 20.03 ЮЗ 1 10 км {гроза, дождь} 9/4 400 м
[Sc Ac trans]
+25.0 +21.8 82 +32 +36 очень
душно
1013.1 978.7
12 20.03 ЮЗ 1 12 км {гроза, дождь} 8/4 480 м
[Cu med, cong Ac trans]
+30.2 +22.3 63 +39 +48 очень
душно
1010.6 976.9 0.0
15 20.03 СЗ 2 12 км 8/3 500 м
[Cu med, cong Ac trans]
+35.5 +21.6 45 +44 +49 опасность
перегрева
1006.5 973.5
21 20.03 ЮЗ 2 10 км 8/0
[Cs]
+30.8 +21.3 57 +39 +39 очень
душно
1009.2 975.6
06 21.03 ЮЗ 3 10 км {гроза} 9/0
[Ac trans]
+24.5 +19.0 71 +29 +29 душно 1010.6 976.3 +24.5
09 21.03 СЗ 1 12 км 8/0
[Ac trans Cs]
+25.9 +19.6 68 +31 +39 очень
душно
1017.2 982.8
12 21.03 ЮЗ 1 12 км 8/1 500 м
[Cu med, cong Ac trans Cs]
+32.0 +20.8 52 +39 +54 опасность
солнечного
удара
1011.6 978.1
15 21.03 ЮЗ 1 12 км 9/0
[Ac trans]
+32.5 +19.3 46 +38 +45 очень
душно
1007.4 974.1
18 21.03 штиль 0 12 км 8/0
[Ac trans]
+32.7 +21.4 51 +40 +40 очень
душно
1005.6 972.3 +33.0
21 21.03 ЮЗ 1 12 км 8/0
[Ac trans]
+30.5 +19.8 53 +37 +37 очень
душно
1009.5 975.9
06 22.03 СЗ 1 10 км 8/0
[Ac trans]
+25.1 +20.2 74 +31 +31 очень
душно
1010.7 976.4 +25.1
09 22.03 ЮЗ 2 10 км 8/0
[Cs]
+28.0 +21.1 66 +35 +44 очень
душно
1012.4 978.4
12 22.03 ЮЗ 2 15 км 5/5 480 м
[Cu med, cong]
+33.0 +21.4 51 +41 +53 опасность
перегрева
1011.2 977.8
15 22.03 Ю 2 15 км 4/4 480 м
[Cu med, cong]
+35.5 +21.6 45 +44 +51 опасность
перегрева
1007.6 974.6
18 22.03 штиль 0 10 км 8/0
[Ac trans Cs]
+35.0 +17.2 35 +38 +38 очень
душно
1007.4 974.3 +36.5
21 22.03 ЮЗ 1 10 км 9/6 360 м
[Sc Ac trans]
+31.0 +19.4 50 +37 +37 очень
душно
1010.4 976.8
00 23.03 Ю 1 10 км 9/4 360 м
[Sc Ac trans]
+28.0 +16.9 51 +32 +32 душно 1011.5 977.5
03 23.03 ЮЗ 2 10 км 9/9 300 м
[Cb calv Ac cuf Ci sp]
+27.0 +20.5 68 +34 +34 очень
душно
1009.6 975.6
06 23.03 З 1 10 км 9/0
[Ac trans Cs]
+25.9 +20.7 73 +32 +32 очень
душно
1011.6 977.4 +25.9
12 23.03 СЗ 2 15 км 5/0
[Ac trans]
+35.5 +15.9 31 +38 +53 опасность
солнечного
удара
1010.7 977.6
15 23.03 СЗ 1 15 км 8/0
[Ac trans]
+37.3 +13.4 24 +38 +45 душно 1007.6 974.8
18 23.03 СЗ 1 15 км 8/0
[Ac As Cs]
+35.2 +14.8 30 +37 +37 очень
душно
1007.8 974.7 +37.5
21 23.03 штиль 0 10 км ясно +28.5 +17.4 51 +33 +33 очень
душно
1010.4 976.5
00 24.03 штиль 0 10 км 1/0
[Ci fib]
+26.0 +16.3 55 +29 +29 душно 1012.3 978.1
03 24.03 штиль 0 10 км ясно +24.5 +16.3 60 +28 +28 душно 1009.6 975.3
06 24.03 штиль 0 10 км 1/0
[Ac trans]
+24.0 +17.5 67 +28 +28 душно 1010.7 976.3 +24.0
09 24.03 ЮЗ 1 12 км ясно +29.0 +21.8 65 +37 +49 очень
душно
1012.1 978.2
15 24.03 З 1 12 км ясно +39.0 +16.3 26 +41 +56 опасность
перегрева
1006.3 973.7

 

Местоположение метеостанции Бол (Гана): широта 9.03 долгота -2.48 высота над уровнем моря 301 м.

В архиве по умолчанию представлена погода в Боле за последнюю неделю. Архивные данные за месяц целиком и за предыдущие месяцы, начиная с января 2011 года, Вы можете получить, выбрав интересующий диапазон дат из раскрывающегося списка и нажав кнопку "Ввод!".


*Определитесь, кто Вы:
робот инопланетянин человек

Внимание! Время в таблицах - всемирное. Для получения местного времени необходимо прибавить поправку, которая равна 1 ч.

Смотрите также архив погоды в соседних городах и на ближайших метеорологических станциях:

Погода в Ва (Гана) (113 км)
Погода в Бондуку (Кот-д'Ивуар) (114 км)
Погода в Уэнчи (Гана) (148 км)
Погода в Гауа (Буркина-Фасо) (164 км)
Погода в Тамале (Гана) (186 км)
Погода в Суняни (Гана) (190 км)
Погода в Навронго (Гана) (257 км)
Погода в Йенди (Гана) (274 км)
Погода в Кумаси (Гана) (275 км)
Погода в По (Буркина-Фасо) (277 км)

Пояснения к столбцам:

Ветер - указаны скорость ветра в м/с - средняя за 10 мин, порывы в срок и между сроками (в фигурных скобках) и направление, откуда дует ветер: С - северный, СВ - северо-восточный, В - восточный, ЮВ - юго-восточный, Ю - южный, ЮЗ - юго-западный, З - западный, СЗ - северо-западный.
Видимость - горизонтальная дальность видимости в метрах или километрах. При видимости от 1 до 10 км при отсутствии осадков обычно наблюдается дымка, при ухудшении видимости до 1 км и менее - туман. В сухую погоду видимость может ухудшаться дымом, пылью или мглою.
Явления - указаны атмосферные явления, наблюдавшиеся в срок или в последний час перед сроком; фигурными скобками обозначены явления, наблюдавшиеся между сроками (за 1-3 часа до срока); квадратными скобками обозначены град или гололедные отложения с указанием их диаметра в мм.
Облачность - указаны через наклонную черту общая и нижняя облачность в баллах и высота нижней границы облаков в метрах; квадратными скобками обозначены формы облаков: Ci - перистые, Cs - перисто-слоистые, Cc - перисто-кучевые, Ac - высококучевые, As - высокослоистые, Sc - слоисто-кучевые, Ns - слоисто-дождевые, Cu - кучевые, Cb - кучево-дождевые. Подробнее классификацию облаков см. в Атласе облаков (PDF).
T - Температура воздуха - температура, измеренная на высоте 2 м над землей.
Td - Температура точки росы - температура, при понижении до которой содержащийся в воздухе водяной пар достигнет насыщения.
f - Относительная влажность воздуха - влажноcть воздуха, измеренная на высоте 2 м над землей.
Te - Эффективная температура - температура, которую ощущает одетый по сезону человек в тени. Характеристика душности погоды. При расчете учитывается влияние влажности воздуха и скорости ветра на теплоощущения человека.
Tes - Эффективная температура на солнце - температура, которую ощущает человек, с поправкой на солнечный нагрев. Характеристика знойности погоды. Зависит от высоты солнца над горизонтом, облачности и скорости ветра. Ночью, в пасмурную погоду, а также при ветре 12 м/с и более поправка равна нулю.
P - Атмосферное давление - приведенное к уровню моря атмосферное давление.
Po - Атмосферное давление - измеренное на уровне метеостанции атмосферное давление.
Tmin - Минимальная температура - минимум температуры воздуха на высоте 2 м над землей.
Tmax - Максимальная температура - максимум температуры воздуха на высоте 2 м над землей.
R - Количество осадков - Количество выпавших осадков за период времени, мм. При наведении курсора мыши на число - период времени, за который выпало указанное количество осадков.
R24 - Количество осадков - Количество выпавших осадков за 24 часа, мм.
S - Снежный покров - Высота снежного покрова, см. При наведении курсора мыши на число - состояние снежного покрова и степень покрытия местности в баллах.